W4CPD Weather Reports


time (UTC)temp
F
wind
direction
speed
knots
gust
knots
rain 1hr
in
rain 24hr
in
rain mn
in
humidity
%
barometer
mb
20260504024533 60 0 0.0 0.9 0.01 0.26 0.22 75 1019.8
20260504024020 60 0 0.0 0.9 0.01 0.26 0.22 74 1019.8
20260504023514 60 0 0.0 1.7 0.01 0.26 0.22 73 1019.6
20260504023034 60 0 0.0 1.7 0.01 0.26 0.22 72 1019.7
20260504022516 61 327 0.0 1.7 0.01 0.26 0.22 71 1019.6
20260504022014 61 0 0.0 1.7 0.01 0.26 0.22 71 1019.5
20260504021532 61 0 0.0 1.7 0.01 0.26 0.22 71 1019.5
20260504021014 62 0 0.0 2.6 0.00 0.25 0.21 70 1019.5
20260504020512 62 327 0.9 2.6 0.00 0.25 0.21 71 1019.4
20260504020038 62 326 0.9 1.7 0.00 0.25 0.21 70 1019.3
20260504015514 63 325 0.0 1.7 0.00 0.27 0.21 69 1019.2
20260504015017 63 0 0.0 1.7 0.00 0.27 0.21 70 1019.2
20260504014532 63 0 0.0 1.7 0.00 0.27 0.21 70 1019.2
20260504014014 63 0 0.0 2.6 0.00 0.27 0.21 69 1019.2
20260504013513 64 325 0.0 2.6 0.00 0.27 0.21 69 1019.0
20260504013031 64 325 0.0 1.7 0.00 0.27 0.21 67 1018.8
20260504012525 64 325 0.0 1.7 0.00 0.27 0.21 64 1018.9
20260504012015 65 0 0.0 0.0 0.00 0.27 0.21 64 1018.9
20260504011530 65 0 0.0 0.0 0.00 0.27 0.21 65 1018.8
20260504011013 66 0 0.0 0.0 0.00 0.27 0.21 64 1018.8
20260504010516 66 0 0.0 0.0 0.01 0.27 0.21 62 1018.7
20260504010038 67 0 0.0 0.0 0.01 0.27 0.21 60 1018.6
20260504005514 67 0 0.0 0.0 0.01 0.30 0.21 57 1018.4
20260504005014 68 0 0.0 0.0 0.01 0.30 0.21 57 1018.5
20260504004531 69 0 0.0 0.0 0.01 0.30 0.21 57 1018.4
20260504004015 69 0 0.0 0.9 0.01 0.30 0.21 56 1018.5
20260504003512 70 0 0.0 0.9 0.01 0.30 0.21 55 1018.4
20260504003029 71 0 0.0 0.9 0.01 0.30 0.21 53 1018.4
20260504002514 71 0 0.0 0.9 0.01 0.30 0.21 52 1018.3
20260504002012 72 0 0.0 2.6 0.01 0.30 0.21 53 1018.3
20260504001529 72 0 0.0 2.6 0.01 0.30 0.21 54 1018.3
20260504001013 73 0 0.0 3.5 0.01 0.30 0.21 51 1018.3
20260504000513 73 0 0.0 4.3 0.00 0.29 0.20 50 1018.3
20260504000034 73 325 0.9 4.3 0.00 0.29 0.20 50 1018.2
20260503235513 74 331 0.9 4.3 0.00 0.31 0.20 51 1018.2
20260503235015 74 317 0.9 4.3 0.00 0.31 0.20 48 1018.2
20260503234533 75 309 1.7 4.3 0.00 0.31 0.20 47 1018.2
20260503234013 75 350 0.9 5.2 0.01 0.31 0.20 44 1018.1
20260503233514 76 355 1.7 5.2 0.01 0.31 0.20 44 1018.3
20260503233033 76 325 2.6 5.2 0.01 0.31 0.20 40 1018.2
20260503232515 77 341 1.7 4.3 0.01 0.31 0.20 39 1018.3
20260503232014 77 26 0.9 4.3 0.01 0.31 0.20 41 1018.3
20260503231543 77 41 0.9 4.3 0.01 0.31 0.20 38 1018.4
20260503231014 77 12 0.9 4.3 0.01 0.31 0.20 38 1018.3
20260503230514 77 21 1.7 7.0 0.01 0.31 0.20 40 1018.3
20260503230035 77 323 2.6 7.0 0.01 0.31 0.20 38 1018.3
20260503225513 78 360 1.7 7.0 0.01 0.35 0.20 36 1018.3
20260503225013 78 9 2.6 7.0 0.01 0.35 0.20 38 1018.3
20260503224532 79 325 2.6 6.1 0.01 0.35 0.20 37 1018.3
20260503224013 79 336 0.9 5.2 0.00 0.34 0.19 36 1018.3
20260503223513 78 0 0.9 8.7 0.01 0.34 0.19 37 1018.1
20260503223030 79 342 3.5 8.7 0.01 0.34 0.19 36 1018.0
20260503222514 79 313 1.7 6.1 0.01 0.34 0.19 35 1018.1
20260503222013 79 355 2.6 7.0 0.01 0.34 0.19 34 1018.2
20260503221529 78 317 0.9 7.8 0.01 0.34 0.19 36 1018.1
20260503221015 78 298 2.6 10.4 0.01 0.34 0.19 36 1018.2
20260503220513 78 329 5.2 10.4 0.01 0.34 0.19 33 1018.2
20260503220038 79 307 4.3 10.4 0.01 0.34 0.19 36 1018.2
20260503215515 78 323 1.7 8.7 0.01 0.38 0.19 36 1018.2
20260503215014 78 295 3.5 8.7 0.01 0.38 0.19 37 1018.1
20260503214540 78 360 2.6 9.6 0.01 0.38 0.19 35 1018.2
20260503214014 78 323 5.2 12.2 0.01 0.38 0.19 34 1018.3
20260503213515 78 295 6.1 12.2 0.00 0.37 0.18 33 1018.3
20260503213048 78 319 2.6 9.6 0.01 0.37 0.18 33 1018.4
20260503212516 79 13 4.3 9.6 0.01 0.37 0.18 34 1018.6
20260503212014 79 20 3.5 11.3 0.01 0.37 0.18 36 1018.6
20260503211542 79 347 2.6 13.0 0.01 0.37 0.18 35 1018.7
20260503211019 79 352 5.2 13.0 0.01 0.37 0.18 34 1018.8
20260503210515 79 346 2.6 9.6 0.01 0.37 0.18 38 1018.8
20260503210035 79 321 4.3 9.6 0.01 0.37 0.18 34 1018.6
20260503205517 79 328 3.5 10.4 0.01 0.42 0.18 34 1018.9
20260503205017 79 355 2.6 11.3 0.01 0.42 0.18 35 1018.9
20260503204549 79 349 2.6 11.3 0.02 0.42 0.18 38 1019.1
20260503204013 79 325 6.1 11.3 0.02 0.42 0.18 35 1019.1
20260503203517 79 51 4.3 10.4 0.02 0.42 0.18 36 1019.0
20260503203033 79 307 2.6 12.2 0.01 0.41 0.17 36 1019.2
20260503202517 80 332 3.5 12.2 0.01 0.41 0.17 37 1019.2
20260503202017 80 26 2.6 10.4 0.01 0.41 0.17 37 1019.2
20260503201533 80 240 4.3 10.4 0.01 0.41 0.17 37 1019.2
20260503201013 79 337 3.5 7.8 0.01 0.41 0.17 34 1019.2
20260503200515 79 268 2.6 7.8 0.02 0.41 0.17 39 1019.3
20260503200035 79 349 3.5 7.8 0.02 0.41 0.17 34 1019.3
20260503195513 79 251 1.7 7.8 0.02 0.45 0.17 39 1019.4
20260503195013 79 0 0.9 7.0 0.02 0.45 0.17 37 1019.4
20260503194531 78 266 3.5 7.0 0.01 0.44 0.16 42 1019.6
20260503194015 78 292 1.7 10.4 0.01 0.44 0.16 37 1019.6
20260503193515 78 10 6.1 10.4 0.01 0.44 0.16 36 1019.8
20260503193034 79 317 4.3 8.7 0.01 0.44 0.16 38 1019.9
20260503192517 79 334 1.7 8.7 0.02 0.44 0.16 41 1019.9
20260503192015 78 11 2.6 10.4 0.02 0.44 0.16 39 1020.1
20260503191537 78 312 5.2 11.3 0.02 0.44 0.16 38 1020.2
20260503191018 78 338 4.3 11.3 0.01 0.43 0.15 38 1020.2
20260503190514 77 344 2.6 8.7 0.01 0.43 0.15 42 1020.4
20260503190030 77 16 2.6 9.6 0.01 0.43 0.15 42 1020.5
20260503185516 76 28 2.6 9.6 0.01 0.48 0.15 39 1020.6
20260503185013 76 62 5.2 9.6 0.01 0.48 0.15 41 1020.9
20260503184534 75 284 2.6 11.3 0.01 0.48 0.15 36 1020.8
20260503184015 75 13 3.5 14.8 0.02 0.48 0.15 39 1021.1
20260503183513 75 360 4.3 14.8 0.02 0.48 0.15 37 1021.2
20260503183040 75 11 5.2 13.9 0.02 0.48 0.15 39 1021.1
20260503182515 75 317 5.2 13.9 0.01 0.47 0.14 38 1021.2
20260503182015 75 342 7.0 13.9 0.01 0.47 0.14 37 1021.3
20260503181530 75 327 4.3 13.9 0.01 0.47 0.14 41 1021.1
20260503181014 74 310 7.0 13.9 0.01 0.47 0.14 38 1021.2
20260503180512 74 355 3.5 14.8 0.01 0.47 0.14 39 1021.2
20260503180035 74 336 8.7 14.8 0.02 0.47 0.14 37 1021.3
20260503175512 74 328 7.0 13.0 0.02 0.52 0.14 40 1021.3
20260503175012 74 0 1.7 11.3 0.02 0.52 0.14 41 1021.2
20260503174538 74 323 4.3 11.3 0.02 0.52 0.14 43 1021.2
20260503174013 74 324 5.2 11.3 0.01 0.51 0.13 42 1021.4
20260503173514 74 352 5.2 11.3 0.01 0.51 0.13 37 1021.4
20260503173031 74 18 6.1 10.4 0.01 0.51 0.13 39 1021.6
20260503172515 73 5 3.5 11.3 0.01 0.51 0.13 45 1021.6
20260503172013 73 349 5.2 13.9 0.01 0.51 0.13 42 1021.6
20260503171534 73 34 6.1 13.9 0.01 0.51 0.13 40 1021.7
20260503171015 73 339 6.1 13.9 0.02 0.51 0.13 39 1021.9
20260503170515 73 344 3.5 13.9 0.02 0.51 0.13 39 1021.8
20260503150516 67 16 2.6 7.0 0.00 0.52 0.10 57 1023.0
20260503131013 54 19 1.7 5.2 0.01 0.58 0.09 84 1021.9
20260503130517 53 41 2.6 7.0 0.01 0.58 0.09 84 1021.7
20260503110519 46 0 0.9 3.5 0.01 0.64 0.07 94 1021.0
20260503081543 48 348 0.9 2.6 0.01 0.71 0.04 92 1019.8
20260503081019 48 347 0.9 4.3 0.01 0.71 0.04 92 1019.8
20260503080514 48 347 0.9 4.3 0.01 0.71 0.04 92 1019.7
20260503072519 49 0 0.0 2.6 0.01 0.73 0.03 91 1019.7
20260503072012 49 336 0.9 2.6 0.01 0.73 0.03 91 1019.6
20260503071548 49 336 0.9 2.6 0.01 0.73 0.03 91 1019.6
20260503071013 49 0 0.0 2.6 0.01 0.73 0.03 91 1019.7
20260503070514 49 336 0.0 2.6 0.01 0.73 0.03 91 1019.6
20260503055014 51 337 0.0 3.5 0.02 0.79 0.02 90 1019.5
20260503054550 51 337 1.7 3.5 0.01 0.78 0.01 89 1019.4
20260503054019 51 336 0.9 3.5 0.01 0.78 0.01 89 1019.4
20260503053515 51 336 1.7 3.5 0.01 0.78 0.01 89 1019.4
20260503053028 51 336 1.7 3.5 0.01 0.78 0.01 88 1019.4
20260503052513 51 0 0.0 2.6 0.01 0.78 0.01 89 1019.4
20260503052015 51 336 0.9 2.6 0.01 0.78 0.01 88 1019.5
20260503051542 51 0 0.0 1.7 0.02 0.78 0.01 88 1019.5
20260503051017 52 0 0.0 1.7 0.02 0.78 0.01 88 1019.4
20260503050512 52 0 0.0 2.6 0.02 0.78 0.01 88 1019.3
20260503050028 52 0 0.0 3.5 0.01 0.77 0.00 89 1019.3
20260503045513 52 336 0.9 3.5 0.01 0.80 0.77 88 1019.3
20260503045016 52 336 1.7 3.5 0.01 0.80 0.77 87 1019.2
20260503044528 52 336 0.9 3.5 0.01 0.80 0.77 87 1019.1
20260503044012 52 336 0.9 2.6 0.01 0.80 0.77 87 1019.0
20260503043513 52 336 0.9 2.6 0.02 0.80 0.77 86 1019.1
20260503043031 52 0 0.9 2.6 0.02 0.80 0.77 86 1019.1
20260503042513 52 336 0.9 2.6 0.02 0.80 0.77 85 1019.1
20260503042014 53 336 0.0 1.7 0.02 0.80 0.77 86 1019.1
20260503041532 53 0 0.0 0.9 0.01 0.79 0.76 85 1019.0
20260503041014 53 0 0.0 0.9 0.01 0.79 0.76 85 1018.9
20260503040515 53 0 0.0 1.7 0.01 0.79 0.76 85 1018.9
20260503040028 53 0 0.0 1.7 0.02 0.79 0.76 85 1018.9
20260503035513 53 0 0.0 1.7 0.02 0.83 0.76 84 1019.0
20260503035016 54 0 0.0 0.9 0.02 0.83 0.76 84 1018.8
20260503034528 54 0 0.0 1.7 0.02 0.83 0.76 83 1018.8
20260503034013 54 0 0.0 1.7 0.02 0.83 0.76 82 1018.7
20260503033513 54 0 0.0 2.6 0.01 0.82 0.75 80 1018.7
20260503033030 54 336 0.9 2.6 0.01 0.82 0.75 80 1018.6
20260503032515 54 336 0.9 2.6 0.02 0.82 0.75 79 1018.6
20260503032014 55 336 0.0 1.7 0.02 0.82 0.75 79 1018.5
20260503031532 55 0 0.0 0.9 0.02 0.82 0.75 78 1018.6
20260503031014 55 0 0.0 0.0 0.02 0.82 0.75 77 1018.5
20260503030514 55 0 0.0 0.0 0.02 0.82 0.75 78 1018.5
20260503030035 55 0 0.0 1.7 0.01 0.81 0.74 77 1018.5
20260503025515 56 0 0.0 3.5 0.01 0.85 0.74 78 1018.5
20260503025014 56 336 0.9 3.5 0.02 0.85 0.74 77 1018.3